| time (UTC) | temp F | wind direction | speed MPH | gust MPH | rain 1hr in | rain 24hr in | rain mn in | humidity % | barometer mb |
| 20260906230033 | 74 | 255 | 10.0 | 17.0 | 0.00 | 0.00 | 0.00 | 27 | 1015.7 |
| 20260906224531 | 74 | 241 | 16.0 | 20.0 | 0.00 | 0.00 | 0.00 | 26 | 1015.8 |
| 20260906223040 | 76 | 215 | 9.0 | 18.0 | 0.00 | 0.00 | 0.00 | 26 | 1015.6 |
| 20260906221530 | 77 | 212 | 15.0 | 20.0 | 0.00 | 0.00 | 0.00 | 22 | 1015.5 |
| 20260906220029 | 77 | 200 | 19.0 | 23.0 | 0.00 | 0.00 | 0.00 | 22 | 1015.6 |
| 20260906214536 | 77 | 191 | 18.0 | 26.0 | 0.00 | 0.00 | 0.00 | 20 | 1015.5 |
| 20260906213027 | 77 | 149 | 16.0 | 29.0 | 0.00 | 0.00 | 0.00 | 21 | 1015.5 |
| 20260906211538 | 77 | 149 | 15.0 | 22.0 | 0.00 | 0.00 | 0.00 | 23 | 1015.9 |
| 20260906210026 | 78 | 139 | 20.0 | 27.0 | 0.00 | 0.00 | 0.00 | 21 | 1016.0 |
| 20260906204529 | 78 | 148 | 18.0 | 28.0 | 0.00 | 0.00 | 0.00 | 22 | 1016.2 |
| 20260906203023 | 78 | 155 | 13.0 | 21.0 | 0.00 | 0.00 | 0.00 | 22 | 1016.3 |
| 20260906201521 | 78 | 142 | 11.0 | 22.0 | 0.00 | 0.00 | 0.00 | 22 | 1016.3 |
| 20260906200036 | 77 | 154 | 13.0 | 20.0 | 0.00 | 0.00 | 0.00 | 21 | 1016.7 |
| 20260906194517 | 77 | 156 | 14.0 | 21.0 | 0.00 | 0.00 | 0.00 | 21 | 1016.6 |
| 20260906193015 | 77 | 158 | 15.0 | 23.0 | 0.00 | 0.00 | 0.00 | 19 | 1016.7 |
| 20260906191516 | 76 | 146 | 14.0 | 27.0 | 0.00 | 0.00 | 0.00 | 20 | 1017.1 |
| 20260906190009 | 76 | 146 | 12.0 | 22.0 | 0.00 | 0.00 | 0.00 | 19 | 1017.4 |
| 20260906184506 | 76 | 137 | 14.0 | 21.0 | 0.00 | 0.00 | 0.00 | 21 | 1017.7 |
| 20260906183004 | 75 | 127 | 14.0 | 25.0 | 0.00 | 0.00 | 0.00 | 22 | 1017.9 |
| 20260906181506 | 75 | 158 | 12.0 | 23.0 | 0.00 | 0.00 | 0.00 | 23 | 1018.2 |
| 20260906174558 | 74 | 137 | 12.0 | 21.0 | 0.00 | 0.00 | 0.00 | 24 | 1018.7 |
| 20260906173054 | 73 | 146 | 9.0 | 17.0 | 0.00 | 0.00 | 0.00 | 29 | 1018.8 |
| 20260906171603 | 70 | 209 | 9.0 | 12.0 | 0.00 | 0.00 | 0.00 | 34 | 1019.1 |
| 20260906170055 | 67 | 184 | 1.0 | 4.0 | 0.00 | 0.00 | 0.00 | 39 | 1019.2 |
| 20260906164544 | 64 | 262 | 3.0 | 5.0 | 0.00 | 0.00 | 0.00 | 41 | 1019.5 |
| 20260906163036 | 62 | 292 | 2.0 | 5.0 | 0.00 | 0.00 | 0.00 | 43 | 1019.6 |
| 20260906161533 | 61 | 278 | 3.0 | 5.0 | 0.00 | 0.00 | 0.00 | 44 | 1019.8 |
| 20260906160031 | 60 | 278 | 0.0 | 3.0 | 0.00 | 0.00 | 0.00 | 44 | 1019.9 |
| 20260906154538 | 59 | 152 | 0.0 | 1.0 | 0.00 | 0.00 | 0.00 | 47 | 1020.0 |
| 20260906153031 | 56 | 277 | 0.0 | 1.0 | 0.00 | 0.00 | 0.00 | 51 | 1020.2 |
| 20260906151527 | 53 | 284 | 0.0 | 3.0 | 0.00 | 0.00 | 0.00 | 59 | 1020.2 |
| 20260906150027 | 52 | 257 | 0.0 | 2.0 | 0.00 | 0.00 | 0.00 | 58 | 1020.3 |
| 20260906144526 | 52 | 226 | 0.0 | 1.0 | 0.00 | 0.00 | 0.00 | 57 | 1020.4 |
| 20260906143024 | 50 | 149 | 0.0 | 1.0 | 0.00 | 0.00 | 0.00 | 59 | 1020.3 |
| 20260906141530 | 46 | 136 | 0.0 | 2.0 | 0.00 | 0.00 | 0.00 | 65 | 1020.4 |
| 20260906140022 | 45 | 141 | 0.0 | 1.0 | 0.00 | 0.00 | 0.00 | 66 | 1020.2 |
| 20260906134528 | 45 | 121 | 0.0 | 1.0 | 0.00 | 0.00 | 0.00 | 65 | 1020.1 |
| 20260906133019 | 45 | 117 | 1.0 | 2.0 | 0.00 | 0.00 | 0.00 | 66 | 1020.1 |
| 20260906131517 | 44 | 82 | 0.0 | 3.0 | 0.00 | 0.00 | 0.00 | 67 | 1019.8 |
| 20260906130014 | 45 | 149 | 0.0 | 0.0 | 0.00 | 0.00 | 0.00 | 65 | 1020.0 |
| 20260906124512 | 46 | 97 | 0.0 | 1.0 | 0.00 | 0.00 | 0.00 | 65 | 1019.7 |
| 20260906123011 | 47 | 274 | 0.0 | 1.0 | 0.00 | 0.00 | 0.00 | 62 | 1019.6 |
| 20260906121509 | 45 | 89 | 1.0 | 2.0 | 0.00 | 0.00 | 0.00 | 66 | 1019.6 |
| 20260906120006 | 45 | 113 | 0.0 | 0.0 | 0.00 | 0.00 | 0.00 | 66 | 1019.6 |
| 20260906114506 | 47 | 246 | 0.0 | 2.0 | 0.00 | 0.00 | 0.00 | 62 | 1019.5 |
| 20260906113001 | 49 | 48 | 0.0 | 3.0 | 0.00 | 0.00 | 0.00 | 58 | 1019.4 |
| 20260906111601 | 49 | 63 | 0.0 | 0.0 | 0.00 | 0.00 | 0.00 | 58 | 1019.5 |
| 20260906110059 | 48 | 94 | 0.0 | 0.0 | 0.00 | 0.00 | 0.00 | 61 | 1019.4 |
| 20260906104603 | 50 | 100 | 0.0 | 0.0 | 0.00 | 0.00 | 0.00 | 57 | 1019.3 |
| 20260906103055 | 50 | 60 | 0.0 | 0.0 | 0.00 | 0.00 | 0.00 | 56 | 1019.1 |
| 20260906101555 | 51 | 34 | 0.0 | 0.0 | 0.00 | 0.00 | 0.00 | 57 | 1019.0 |
| 20260906100053 | 50 | 35 | 0.0 | 0.0 | 0.00 | 0.00 | 0.00 | 58 | 1019.0 |
| 20260906094607 | 50 | 1 | 0.0 | 0.0 | 0.00 | 0.00 | 0.00 | 58 | 1019.1 |
| 20260906093119 | 50 | 58 | 0.0 | 0.0 | 0.00 | 0.00 | 0.00 | 59 | 1018.9 |
| 20260906091548 | 50 | 258 | 0.0 | 0.0 | 0.00 | 0.00 | 0.00 | 57 | 1018.9 |
| 20260906090045 | 51 | 248 | 0.0 | 0.0 | 0.00 | 0.00 | 0.00 | 55 | 1018.9 |
| 20260906084543 | 52 | 77 | 0.0 | 2.0 | 0.00 | 0.00 | 0.00 | 53 | 1018.8 |
| 20260906083047 | 52 | 122 | 1.0 | 2.0 | 0.00 | 0.00 | 0.00 | 53 | 1018.8 |
| 20260906081541 | 54 | 30 | 0.0 | 1.0 | 0.00 | 0.00 | 0.00 | 48 | 1018.8 |
| 20260906080043 | 53 | 48 | 1.0 | 3.0 | 0.00 | 0.00 | 0.00 | 50 | 1018.8 |
| 20260906074541 | 52 | 146 | 0.0 | 1.0 | 0.00 | 0.00 | 0.00 | 51 | 1018.8 |
| 20260906073039 | 52 | 108 | 0.0 | 1.0 | 0.00 | 0.00 | 0.00 | 52 | 1018.8 |
| 20260906071539 | 52 | 149 | 1.0 | 2.0 | 0.00 | 0.00 | 0.00 | 52 | 1018.8 |
| 20260906070034 | 53 | 127 | 1.0 | 3.0 | 0.00 | 0.00 | 0.00 | 53 | 1018.8 |
| 20260906064530 | 56 | 186 | 3.0 | 4.0 | 0.00 | 0.00 | 0.00 | 46 | 1018.7 |
| 20260906063031 | 59 | 138 | 2.0 | 4.0 | 0.00 | 0.00 | 0.00 | 40 | 1018.8 |
| 20260906061529 | 59 | 101 | 1.0 | 3.0 | 0.00 | 0.00 | 0.00 | 41 | 1018.8 |
| 20260906060022 | 56 | 95 | 2.0 | 3.0 | 0.00 | 0.00 | 0.00 | 45 | 1018.9 |
| 20260906054521 | 55 | 58 | 0.0 | 2.0 | 0.00 | 0.00 | 0.00 | 48 | 1019.0 |
| 20260906053020 | 56 | 266 | 0.0 | 2.0 | 0.00 | 0.00 | 0.00 | 46 | 1018.9 |
| 20260906051519 | 57 | 142 | 0.0 | 4.0 | 0.00 | 0.00 | 0.00 | 45 | 1019.0 |
| 20260906050020 | 60 | 197 | 2.0 | 3.0 | 0.00 | 0.00 | 0.00 | 41 | 1019.2 |
| 20260906044519 | 61 | 184 | 1.0 | 4.0 | 0.00 | 0.00 | 0.00 | 39 | 1019.3 |
| 20260906043020 | 60 | 157 | 1.0 | 4.0 | 0.00 | 0.00 | 0.00 | 40 | 1019.3 |
| 20260906041518 | 61 | 149 | 3.0 | 6.0 | 0.00 | 0.00 | 0.00 | 37 | 1019.2 |
| 20260906040024 | 63 | 107 | 1.0 | 4.0 | 0.00 | 0.00 | 0.00 | 35 | 1019.0 |
| 20260906034517 | 66 | 53 | 3.0 | 6.0 | 0.00 | 0.00 | 0.00 | 29 | 1019.1 |
| 20260906033017 | 66 | 91 | 3.0 | 8.0 | 0.00 | 0.00 | 0.00 | 28 | 1019.0 |
| 20260906031516 | 65 | 76 | 5.0 | 9.0 | 0.00 | 0.00 | 0.00 | 30 | 1018.9 |
| 20260906030015 | 68 | 63 | 4.0 | 7.0 | 0.00 | 0.00 | 0.00 | 27 | 1018.8 |
| 20260906024531 | 69 | 72 | 2.0 | 8.0 | 0.00 | 0.00 | 0.00 | 25 | 1018.7 |
| 20260906023019 | 68 | 66 | 7.0 | 8.0 | 0.00 | 0.00 | 0.00 | 28 | 1018.4 |
| 20260906021513 | 69 | 62 | 4.0 | 7.0 | 0.00 | 0.00 | 0.00 | 28 | 1018.3 |
| 20260906020012 | 71 | 60 | 4.0 | 5.0 | 0.00 | 0.00 | 0.00 | 23 | 1018.1 |
| 20260906014517 | 74 | 59 | 0.0 | 1.0 | 0.00 | 0.00 | 0.00 | 22 | 1018.0 |
| 20260906013032 | 76 | 280 | 4.0 | 9.0 | 0.00 | 0.00 | 0.00 | 20 | 1017.8 |
| 20260906011510 | 79 | 300 | 0.0 | 0.0 | 0.00 | 0.00 | 0.00 | 20 | 1017.7 |
| 20260906010008 | 77 | 228 | 5.0 | 7.0 | 0.00 | 0.00 | 0.00 | 19 | 1017.8 |
| 20260906004508 | 78 | 283 | 5.0 | 7.0 | 0.00 | 0.00 | 0.00 | 21 | 1017.7 |
| 20260906003007 | 78 | 273 | 6.0 | 12.0 | 0.00 | 0.00 | 0.00 | 20 | 1017.6 |
| 20260906001505 | 78 | 262 | 9.0 | 15.0 | 0.00 | 0.00 | 0.00 | 20 | 1017.6 |
| 20260906000006 | 78 | 283 | 11.0 | 17.0 | 0.00 | 0.00 | 0.00 | 18 | 1017.6 |
| 20260905234505 | 78 | 236 | 10.0 | 16.0 | 0.00 | 0.00 | 0.00 | 18 | 1017.7 |
| 20260905233004 | 79 | 266 | 8.0 | 19.0 | 0.00 | 0.00 | 0.00 | 19 | 1017.5 |
| 20260905231504 | 79 | 248 | 8.0 | 13.0 | 0.00 | 0.00 | 0.00 | 20 | 1017.5 |